Weather in Migulinskaya

Russia / Rostov Oblast     49°41′39″N   41°15′51″E
temp.,
°C
wind,
m/s
gust,
m/s
humid.,
%
clouds,
%
prec.,
mm/h
press.,
hPa
HPBL,
m
25 february, thu
thu2500:00−13ssw357594 0.0 1039303
03:00−12ssw487895 0.0 1037378
06:00−12ssw5979100 0.0 1035385
09:00−11sw61077100 0.0 1033392
12:00−8sw61080100 0.0 1031486
15:00−6wsw71286100 0.1 1028524
18:00−4sw81491100 0.1 1024390
21:00−2wsw61493100 0.4 1022455
26 february, fri
fri2600:000wsw61295100 0.3 1020339
03:00+2w61497100 0.9 1020381
06:00+2w51198100 0.3 1019286
09:00+2w51098100 0.5 1019240
12:00+3w510100100 0.0 1018263
15:00+4w61210099 0.0 1018382
18:00+3w51297100 0.0 1016330
21:00+3w61396100 0.0 1015397
27 february, sat
sat2700:00+3wsw61394100 0.1 1013407
03:00+2w61394100 0.1 1012428
06:00+2w51194100 0.0 1010425
09:00+2w51192100 0.0 1010521
12:00+3w61089100 0.0 1009728
15:00+2w6109699 0.3 1008626
18:00+1w31093100 0.1 1007494
21:00+1wnw599796 0.3 1008477
28 february, sun
sun2800:00+1w51096100 0.1 1007559
03:000wnw61197100 0.3 1008564
06:00−3nnw7118096 0.3 1010627
09:00−5nnw687397 0.3 1012779
12:00−5nnw6868100 0.0 1014783
15:00−4nnw686799 0.0 1015823
18:00−6nnw6972100 0.0 1017776
21:00−7nnw6875100 0.0 1019729
1 march, mon
mon100:00−8nnw5775100 0.0 1021678
03:00−8nnw5777100 0.0 1023630
06:00−9nnw4779100 0.0 1024610
09:00−8nnw4674100 0.0 1026610
12:00−5nnw566585 0.0 1027669
15:00−4nnw566046 0.0 1028746
18:00−5nnw57680 0.0 1028657
21:00−6nnw36770 0.0 1030522